Wind_Speed
27 28 30 29 29 30 31 30 30 28 27 25 27 29 30 30 30 30 31 32 34 35 36 37 39 41 42 44 45 47 48 49 50 51 52 53 54 54 56 57 58 58 59 60
29 28 30 30 30 30 31 30 30 30 27 25 30 31 31 31 32 32 34 35 36 37 38 40 41 43 44 45 47 48 49 50 51 52 53 53 54 56 56 57 58 60 61 62
30 29 31 32 29 29 30 30 30 30 27 28 30 31 32 33 33 35 36 37 38 39 40 42 43 44 46 47 49 49 50 51 52 53 53 54 56 56 57 58 59 61 61 63
32 32 35 28 26 28 29 29 29 29 28 29 31 32 33 34 35 36 37 38 39 40 42 43 44 46 47 49 50 51 51 52 53 53 54 55 56 57 58 60 61 61 63 64
33 34 34 31 28 28 29 28 28 30 30 32 33 33 34 35 36 37 38 40 41 42 43 45 46 47 48 49 50 51 52 52 53 54 55 56 57 58 59 61 62 63 65 67
34 34 33 29 28 30 31 29 27 30 32 33 34 35 35 36 37 39 40 41 42 44 45 46 47 48 49 50 50 51 51 52 53 54 56 57 58 59 61 62 63 65 67 69
33 34 32 29 29 30 31 28 28 31 33 34 35 36 36 37 39 40 41 43 44 44 45 46 47 48 48 49 50 50 51 52 54 55 57 58 59 60 62 64 66 67 69 72
34 35 30 28 30 31 30 31 32 33 34 35 36 36 37 38 40 41 42 43 44 45 45 46 46 47 48 49 50 51 52 53 54 56 57 59 60 62 64 66 68 70 73 75
33 32 31 32 32 32 32 33 34 35 36 36 37 37 38 39 40 41 42 43 43 44 45 45 46 47 48 49 50 51 53 54 55 57 58 60 62 64 66 69 72 74 77 79
34 33 33 33 33 34 34 35 36 36 37 37 38 38 39 39 40 41 41 42 43 43 44 45 46 48 49 50 51 52 53 55 56 58 60 62 64 67 70 73 76 78 81 82
34 33 33 34 34 35 36 37 37 37 38 38 39 39 40 40 41 41 42 43 43 44 45 47 48 49 50 51 52 53 55 56 58 60 62 65 67 70 73 76 80 82 84 84
32 32 34 34 35 36 37 37 38 38 38 39 39 40 41 41 42 42 43 44 45 46 46 47 48 49 51 52 53 55 56 58 61 63 66 68 71 73 76 79 82 84 84 84
33 33 34 35 36 37 38 38 38 39 39 40 40 41 42 42 43 43 44 45 45 46 46 48 49 50 52 53 55 57 59 61 64 67 70 72 75 78 79 80 82 83 82 81
34 34 35 35 36 37 37 38 38 39 39 40 41 42 42 43 43 44 45 45 45 46 47 48 50 51 53 55 57 60 62 65 68 70 74 76 79 81 83 83 82 79 78 76
35 36 36 36 36 37 37 37 38 38 39 40 41 42 42 43 43 43 44 44 45 46 48 49 51 53 55 58 60 63 66 68 71 74 77 79 81 83 84 83 82 79 74 69
35 35 35 35 35 36 36 37 38 39 40 40 41 41 41 41 42 42 43 45 46 48 49 51 53 55 58 61 64 66 69 72 76 78 80 81 83 83 83 81 79 74 69 64
34 34 34 34 35 35 36 37 37 38 38 38 39 39 40 40 41 43 44 46 47 49 51 54 56 58 61 65 67 70 73 76 78 80 81 83 83 83 81 78 74 69 63 59
34 34 34 35 35 35 35 35 36 36 37 37 38 38 40 41 42 43 45 47 49 51 54 57 59 62 65 68 71 74 76 78 79 81 82 83 82 80 77 73 69 64 59 55
33 33 34 34 34 33 34 34 35 35 36 36 37 39 40 41 43 45 47 49 51 54 56 59 62 65 68 71 74 76 78 80 81 82 82 81 79 76 72 67 63 59 56 51
32 32 32 32 32 33 33 34 35 35 36 37 38 40 41 43 45 47 49 52 54 57 60 62 65 69 72 75 77 79 80 81 82 81 80 77 73 69 65 61 57 54 50 47
31 31 31 32 32 33 34 34 35 36 37 39 40 42 44 45 48 50 52 54 57 60 63 66 69 73 75 77 79 81 81 81 80 78 75 71 67 63 59 55 52 49 45 42
31 32 32 33 33 34 35 36 37 38 40 41 43 44 46 48 50 52 55 58 61 64 67 70 73 76 78 79 80 80 79 78 76 73 69 65 61 57 53 50 47 44 41 38
33 33 34 34 35 36 37 38 39 40 42 43 45 46 48 50 53 55 58 61 64 67 70 73 76 78 80 80 79 77 75 73 70 67 63 59 56 53 50 47 44 41 38 35
34 34 35 36 37 37 38 39 41 42 43 45 47 49 51 53 56 59 62 65 68 71 73 76 78 79 79 78 75 73 70 67 64 60 57 54 52 49 47 44 41 38 35 32
34 35 36 36 37 38 39 41 42 43 45 47 49 52 54 57 60 63 65 68 71 74 76 77 78 78 76 73 70 67 64 61 58 55 52 50 48 45 43 40 37 34 31 29
34 35 36 37 38 40 41 42 43 45 47 49 52 55 58 61 63 66 69 72 74 76 77 77 76 73 69 66 63 61 59 56 53 51 50 48 45 42 39 36 33 30 28 27
35 36 37 38 39 40 42 44 46 48 50 53 55 58 61 64 67 70 72 74 76 76 76 73 70 66 63 60 58 57 55 52 50 48 46 43 40 37 34 31 28 26 25 24
Wind_Direction
241 241 241 240 240 241 244 247 249 250 252 255 259 261 263 266 269 272 276 279 281 283 285 286 288 289 290 292 293 294 295 295 297 297 297 297 297 297 298 298 299 299 300 301
240 242 242 240 238 240 244 247 251 252 252 255 258 262 266 269 272 275 278 281 283 285 287 288 289 290 291 293 294 295 295 296 297 297 297 298 298 298 299 299 300 301 302 302
241 243 246 244 243 244 246 249 252 255 256 256 260 265 269 273 275 278 280 283 285 286 287 288 290 291 292 293 294 295 296 296 297 297 298 298 298 299 300 301 302 302 303 303
242 244 248 253 250 250 251 252 255 258 259 261 264 267 271 274 277 279 281 284 286 287 289 290 291 292 293 293 294 295 296 296 297 297 298 299 299 300 301 302 303 303 304 304
244 247 252 252 253 253 254 254 258 261 263 264 267 269 272 275 277 280 282 285 287 288 290 291 292 293 293 294 295 295 296 297 297 298 299 299 300 301 302 303 303 304 305 305
246 250 254 255 254 255 259 261 261 263 265 267 270 272 274 277 279 281 284 286 288 289 290 291 292 293 293 294 295 296 297 298 298 299 300 300 301 302 303 303 304 305 306 306
249 253 255 257 259 260 262 265 263 263 266 269 272 274 276 278 280 282 284 286 288 289 290 291 292 293 294 295 295 297 298 299 299 300 301 301 302 303 304 304 305 306 307 308
250 253 257 261 262 262 265 264 265 267 269 271 274 276 277 279 281 283 285 287 289 290 291 292 293 294 294 295 296 298 299 300 300 301 302 302 303 304 305 305 306 306 307 308
250 254 258 258 261 263 265 267 268 270 272 274 276 277 280 282 283 285 287 288 290 291 293 293 294 295 296 297 298 299 300 301 301 302 303 303 304 305 305 306 307 307 308 309
249 252 256 259 261 263 266 268 270 272 274 276 278 280 282 283 285 287 289 290 291 293 294 294 295 296 297 299 300 301 301 301 302 303 303 304 305 306 306 307 308 308 309 310
250 252 255 258 261 264 266 269 272 274 277 279 281 283 284 286 288 289 290 291 293 294 295 296 297 298 299 300 301 301 302 302 303 303 304 305 306 307 308 308 309 310 310 311
252 253 255 258 260 264 267 269 272 275 278 281 283 285 286 288 289 290 291 293 294 295 296 297 298 299 300 301 302 302 303 303 304 304 305 306 307 307 309 309 310 311 311 311
252 255 257 260 262 264 267 270 273 276 279 282 284 286 287 289 290 291 292 294 295 296 297 298 299 300 301 302 302 303 304 304 305 306 306 307 308 308 309 310 311 311 311 311
255 257 259 261 263 266 269 272 275 278 281 283 284 286 288 289 290 292 293 295 296 297 297 299 300 301 302 303 303 304 305 306 306 307 307 308 309 309 310 311 311 311 311 310
255 258 261 263 265 268 271 273 276 279 282 283 285 286 288 289 291 292 294 295 297 298 299 300 301 302 303 304 304 305 306 306 307 308 308 309 310 310 311 311 311 311 311 309
255 259 262 265 268 270 272 275 278 280 282 284 285 286 288 290 292 293 295 296 298 299 300 301 302 303 303 304 305 306 307 307 308 309 309 310 310 311 311 311 311 311 311 309
257 261 264 267 270 272 274 277 279 280 282 284 286 288 289 291 293 294 296 297 299 300 301 301 302 303 304 305 306 307 307 308 309 309 310 310 311 311 311 311 311 311 310 308
260 262 265 268 271 273 275 277 278 281 283 285 287 289 291 293 294 296 297 298 299 300 301 303 304 304 305 306 307 308 308 309 309 310 310 311 311 311 311 310 310 309 308 307
263 265 268 270 271 273 275 277 280 282 284 287 289 291 293 294 295 296 297 298 300 301 302 304 304 305 306 307 308 308 309 309 310 310 311 311 311 311 311 310 309 308 307 305
264 267 268 270 272 274 276 278 281 283 286 288 290 292 293 295 296 297 299 300 301 302 303 304 305 306 307 308 308 309 309 310 311 311 311 311 311 311 311 310 309 308 306 304
265 267 268 270 273 276 278 280 283 285 287 289 291 293 294 295 297 298 300 301 302 303 305 306 306 307 308 309 309 310 310 311 311 311 311 312 312 311 311 310 310 308 306 304
265 268 270 273 275 278 280 282 284 286 288 290 292 293 295 296 298 299 301 302 303 304 306 306 307 308 309 309 310 310 310 311 311 311 312 312 312 312 312 311 310 309 306 304
267 270 272 274 277 279 281 283 285 287 289 291 293 294 296 297 299 300 302 303 304 306 307 307 308 309 309 310 310 310 311 311 312 312 312 312 312 312 312 311 310 309 306 304
268 271 273 276 278 280 283 285 286 288 290 292 293 295 297 299 300 302 303 304 305 307 308 308 309 309 310 310 310 311 311 312 312 311 312 312 312 312 311 311 310 308 306 304
269 272 275 277 279 281 284 286 288 290 291 293 295 297 299 300 302 303 304 306 307 308 308 309 309 310 310 310 310 311 311 312 311 311 311 312 312 312 311 311 309 308 306 303
270 273 275 277 280 283 285 287 289 291 293 295 297 299 300 302 303 304 305 307 307 308 309 309 310 310 310 310 310 311 311 311 311 311 311 311 312 312 312 311 310 308 306 304
272 274 277 280 282 284 286 289 291 293 295 297 298 300 301 303 304 305 306 307 308 309 309 310 310 309 310 310 311 311 311 311 311 311 311 311 311 311 311 311 310 309 308 307
Height
5706 5708 5710 5713 5715 5716 5717 5719 5721 5724 5724 5726 5725 5725 5725 5725 5725 5725 5724 5722 5721 5719 5716 5713 5710 5707 5703 5700 5696 5691 5687 5682 5677 5672 5666 5661 5655 5650 5644 5638 5632 5625 5619 5612
5699 5701 5703 5705 5707 5709 5711 5712 5713 5715 5718 5719 5717 5717 5717 5717 5716 5716 5714 5713 5711 5709 5706 5703 5700 5696 5693 5689 5684 5680 5675 5670 5664 5659 5654 5648 5642 5636 5630 5624 5618 5611 5604 5597
5693 5694 5695 5697 5702 5703 5704 5706 5707 5707 5711 5710 5709 5709 5708 5708 5707 5706 5705 5703 5701 5698 5696 5692 5689 5685 5681 5677 5672 5667 5663 5657 5652 5646 5641 5635 5629 5623 5616 5610 5603 5596 5589 5581
5685 5688 5687 5695 5695 5696 5697 5699 5699 5700 5702 5702 5702 5701 5700 5699 5698 5697 5695 5693 5690 5688 5685 5681 5678 5674 5670 5665 5660 5655 5650 5645 5639 5633 5628 5621 5615 5609 5602 5596 5589 5581 5574 5565
5678 5679 5681 5686 5688 5689 5689 5691 5693 5692 5693 5693 5692 5692 5692 5690 5688 5687 5685 5682 5680 5677 5673 5670 5666 5662 5657 5653 5648 5643 5637 5632 5626 5620 5614 5608 5601 5595 5588 5581 5574 5566 5558 5549
5670 5671 5673 5680 5682 5681 5682 5683 5686 5684 5684 5684 5683 5683 5683 5681 5679 5676 5674 5671 5668 5665 5662 5658 5654 5650 5645 5640 5635 5630 5625 5619 5613 5606 5600 5594 5587 5580 5573 5566 5558 5550 5542 5532
5662 5664 5666 5672 5673 5673 5675 5678 5677 5675 5675 5675 5674 5674 5673 5670 5668 5666 5663 5660 5657 5654 5650 5646 5642 5637 5633 5628 5623 5617 5612 5606 5599 5593 5586 5580 5573 5566 5558 5550 5543 5534 5526 5516
5655 5656 5662 5665 5664 5665 5666 5666 5666 5666 5666 5665 5665 5663 5662 5660 5657 5655 5652 5649 5645 5642 5638 5634 5629 5625 5620 5615 5610 5605 5599 5592 5586 5579 5572 5565 5558 5550 5542 5533 5525 5516 5507 5499
5648 5651 5654 5654 5655 5656 5656 5656 5656 5656 5656 5655 5654 5653 5651 5649 5646 5643 5640 5637 5633 5629 5625 5621 5617 5612 5607 5602 5597 5591 5585 5578 5572 5565 5558 5550 5542 5534 5526 5516 5507 5498 5488 5479
5639 5642 5644 5645 5645 5646 5646 5646 5646 5646 5645 5644 5643 5642 5640 5637 5635 5632 5628 5625 5621 5617 5613 5609 5604 5599 5594 5589 5583 5578 5571 5565 5558 5551 5543 5535 5526 5517 5508 5498 5488 5477 5467 5457
5630 5633 5634 5635 5636 5636 5636 5636 5636 5635 5634 5633 5632 5630 5628 5625 5623 5620 5616 5613 5609 5605 5601 5596 5591 5586 5581 5575 5570 5564 5557 5550 5543 5536 5528 5520 5511 5501 5490 5480 5466 5455 5445 5433
5623 5625 5625 5626 5627 5626 5626 5626 5626 5625 5624 5622 5620 5618 5616 5613 5611 5607 5604 5600 5597 5592 5588 5583 5578 5573 5567 5561 5556 5549 5543 5536 5528 5520 5512 5503 5494 5486 5474 5461 5449 5435 5421 5409
5613 5614 5615 5616 5616 5616 5616 5616 5615 5614 5613 5611 5609 5607 5604 5602 5598 5595 5592 5588 5584 5579 5575 5570 5565 5559 5553 5548 5541 5535 5527 5520 5512 5503 5494 5485 5475 5465 5457 5448 5433 5417 5403 5390
5603 5604 5604 5605 5606 5606 5606 5605 5604 5603 5602 5600 5598 5595 5592 5590 5586 5583 5579 5575 5571 5567 5562 5557 5552 5546 5540 5533 5527 5520 5512 5503 5495 5486 5476 5466 5455 5444 5433 5423 5415 5404 5389 5374
5593 5593 5594 5595 5596 5596 5595 5595 5594 5592 5591 5589 5586 5583 5581 5578 5574 5571 5567 5563 5559 5554 5549 5544 5538 5532 5526 5519 5512 5504 5496 5487 5477 5468 5457 5446 5435 5424 5412 5400 5390 5380 5371 5359
5583 5583 5584 5585 5585 5585 5585 5584 5583 5581 5579 5577 5575 5572 5569 5566 5562 5559 5555 5551 5546 5541 5536 5530 5525 5518 5511 5504 5496 5488 5479 5469 5458 5449 5438 5427 5415 5403 5391 5380 5369 5359 5350 5341
5574 5575 5575 5575 5575 5575 5574 5573 5572 5570 5568 5566 5563 5560 5557 5554 5551 5547 5543 5538 5533 5528 5523 5517 5511 5504 5496 5488 5480 5471 5462 5452 5440 5429 5418 5406 5395 5383 5371 5360 5350 5341 5332 5324
5565 5565 5566 5566 5565 5564 5563 5562 5561 5559 5557 5555 5552 5549 5546 5543 5539 5535 5531 5526 5521 5515 5509 5502 5496 5488 5480 5471 5462 5453 5443 5433 5422 5410 5398 5387 5375 5363 5352 5341 5332 5323 5316 5309
5555 5555 5555 5555 5555 5554 5553 5552 5550 5548 5546 5544 5541 5538 5535 5531 5527 5523 5518 5513 5507 5502 5496 5488 5480 5472 5464 5454 5444 5434 5424 5413 5402 5390 5378 5367 5355 5344 5333 5323 5314 5306 5299 5293
5545 5545 5545 5545 5545 5544 5543 5541 5539 5537 5535 5533 5530 5526 5523 5519 5515 5510 5505 5500 5493 5487 5481 5473 5465 5456 5447 5437 5426 5415 5404 5393 5381 5370 5359 5347 5336 5326 5316 5307 5299 5291 5284 5278
5535 5536 5536 5535 5535 5534 5532 5531 5529 5527 5524 5521 5518 5515 5511 5506 5502 5497 5492 5486 5479 5471 5464 5456 5447 5438 5428 5418 5407 5396 5384 5372 5361 5350 5339 5329 5319 5310 5301 5292 5284 5277 5271 5265
5525 5526 5525 5525 5524 5523 5521 5520 5518 5515 5512 5509 5506 5502 5498 5493 5488 5483 5477 5471 5464 5456 5448 5439 5429 5419 5409 5398 5387 5376 5365 5353 5342 5332 5322 5312 5303 5294 5286 5279 5271 5265 5259 5254
5515 5515 5515 5514 5513 5512 5510 5508 5506 5503 5500 5497 5493 5489 5485 5480 5474 5469 5464 5456 5447 5440 5431 5421 5411 5400 5389 5378 5368 5356 5346 5335 5325 5315 5306 5297 5288 5280 5273 5266 5260 5254 5248 5244
5505 5505 5504 5503 5502 5501 5499 5497 5494 5491 5488 5484 5480 5475 5471 5466 5460 5453 5446 5439 5430 5422 5412 5402 5391 5380 5369 5359 5348 5338 5328 5318 5308 5300 5291 5283 5276 5268 5261 5255 5249 5243 5239 5235
5494 5494 5493 5492 5491 5489 5487 5485 5482 5479 5475 5471 5466 5461 5456 5450 5445 5438 5430 5422 5413 5403 5394 5383 5372 5361 5350 5340 5330 5321 5311 5302 5294 5285 5278 5271 5264 5257 5250 5244 5239 5234 5230 5226
5483 5483 5482 5481 5479 5477 5475 5472 5469 5466 5462 5458 5453 5447 5441 5434 5427 5420 5412 5404 5394 5384 5374 5364 5353 5342 5332 5323 5314 5305 5297 5288 5280 5273 5265 5259 5252 5246 5240 5234 5229 5225 5221 5218
5472 5472 5471 5469 5468 5465 5463 5460 5457 5453 5448 5444 5439 5432 5425 5418 5411 5403 5394 5385 5375 5365 5355 5345 5335 5325 5316 5308 5299 5291 5283 5275 5267 5260 5254 5247 5242 5236 5231 5226 5222 5218 5215 5211